Theta_e
325 325 325 325 329 329 329 332 331 325 321 323 325 327 324 322 322 324 324 324 323 322 322 324 324 325 326 326 326 326 326 327 330 332 333 333 334 334 334 334 335 335 334 333
326 327 322 324 326 327 330 330 330 326 322 321 323 323 322 321 321 321 321 320 321 321 320 320 321 321 321 320 319 320 320 320 320 321 324 326 327 328 330 329 331 331 330 327
327 324 323 325 325 324 327 330 329 327 322 321 321 321 319 320 319 318 318 317 317 318 318 314 313 314 314 315 316 318 318 318 319 319 321 322 323 323 322 322 321 320 320 320
323 318 322 324 326 324 326 322 324 325 323 324 322 329 323 322 318 317 317 316 316 316 311 311 312 312 312 312 312 313 315 316 317 318 319 318 318 319 319 320 321 322 321 317
321 319 320 322 323 322 324 324 324 324 325 323 323 323 320 320 317 316 315 314 311 312 311 310 311 311 311 311 311 313 314 314 314 314 314 314 315 316 316 317 317 318 317 318
318 316 318 318 319 320 320 321 322 323 325 328 324 323 320 319 318 315 311 311 311 311 311 310 312 312 311 311 310 310 311 311 310 310 310 310 311 313 314 315 317 318 318 318
319 319 317 318 321 320 320 319 323 321 320 322 318 323 321 314 312 310 311 311 310 310 310 310 310 311 310 310 310 309 309 309 308 308 308 308 308 308 309 310 312 314 315 316
320 319 318 318 318 321 320 317 321 323 322 316 312 312 312 313 311 309 310 311 309 310 310 309 311 311 311 310 309 309 308 308 307 307 307 306 306 305 305 305 306 307 308 310
317 319 315 317 316 318 320 320 315 315 311 314 313 313 314 312 312 311 311 310 309 310 310 310 311 311 310 309 309 308 308 307 307 306 306 305 305 304 304 304 304 304 304 304
315 317 317 315 316 316 318 315 316 316 315 314 311 313 313 313 312 311 310 310 310 309 309 309 309 310 310 309 308 308 307 307 306 306 305 305 304 304 304 303 303 302 302 302
314 315 317 316 317 319 318 317 317 317 317 319 315 311 308 311 310 310 309 310 309 309 309 308 309 310 310 310 309 308 307 307 306 305 305 304 303 303 302 302 301 301 300 300
315 315 318 317 313 313 315 317 317 316 316 314 316 315 309 308 308 309 309 309 309 309 309 308 310 310 310 308 307 306 305 304 304 303 303 302 302 301 301 301 300 299 299 299
314 316 318 317 314 314 316 315 316 316 313 314 313 314 309 307 308 307 308 309 308 309 310 308 309 309 308 307 306 304 304 302 301 300 300 299 299 299 298 298 298 298 298 298
314 316 316 317 315 314 316 315 315 316 312 314 314 313 311 308 309 310 309 309 309 310 309 308 308 308 306 305 304 302 300 299 298 298 298 298 298 297 297 297 297 297 296 296
312 314 312 312 312 312 314 315 315 316 315 314 315 313 314 313 312 310 311 310 310 310 309 309 306 304 303 301 299 298 298 297 296 297 296 296 296 295 295 295 296 296 296 295
309 309 310 308 311 310 311 311 312 313 313 313 314 314 311 310 310 310 310 310 310 310 309 306 303 301 299 298 296 296 295 294 294 294 294 293 293 292 292 292 292 292 293 293
311 308 305 307 308 308 299 308 310 311 311 312 313 311 310 309 310 310 309 309 310 309 305 302 300 299 297 295 294 293 292 292 292 292 292 290 289 289 289 289 289 289 290 290
309 307 305 298 296 299 304 303 306 307 307 307 308 309 309 309 310 307 306 308 305 302 301 298 297 295 294 293 292 291 291 291 290 290 289 288 287 286 286 286 286 286 286 286
304 305 297 297 297 301 300 300 304 308 307 306 306 306 306 307 308 301 298 298 298 297 297 295 293 292 292 291 289 289 289 288 288 286 285 284 283 283 283 283 283 284 284 284
301 302 298 294 294 294 302 305 305 305 303 303 305 306 307 307 308 300 298 297 296 294 293 292 291 290 289 287 287 287 286 285 284 282 281 281 281 280 281 281 281 281 282 283
293 294 292 293 293 298 301 302 306 300 300 302 302 304 304 303 299 296 295 295 293 292 291 290 289 288 286 285 285 283 282 281 280 280 280 280 279 279 279 280 280 280 281 281
295 293 290 292 293 295 300 301 306 303 301 300 298 299 299 297 297 296 295 293 292 291 289 287 286 285 284 283 282 280 279 278 278 278 278 278 278 278 278 278 279 279 280 280
298 299 298 298 298 299 300 301 302 300 300 300 297 297 297 296 295 295 293 291 290 289 287 285 284 282 282 280 279 278 277 277 277 277 278 278 278 278 277 277 278 278 278 278
299 299 299 302 300 299 299 299 299 300 299 298 296 295 295 296 294 293 291 289 288 287 285 283 282 281 279 278 277 276 276 275 276 276 276 276 275 275 276 276 277 277 277 277
297 298 298 299 299 297 297 298 298 299 295 294 293 293 293 293 292 292 289 287 286 284 282 281 279 278 277 276 276 275 276 276 275 274 274 274 273 274 274 275 275 276 276 277
296 297 299 299 299 299 298 295 297 297 294 292 292 291 290 289 289 288 285 285 284 281 280 278 277 276 276 276 276 275 274 274 273 272 272 272 272 272 273 273 273 273 274 276
Wind_Speed
10 7 10 9 13 5 3 4 5 9 6 4 2 4 8 8 6 1 3 1 4 6 7 6 3 5 6 6 8 10 12 13 12 14 16 17 17 17 18 18 17 17 15 14
3 12 11 9 13 8 6 5 2 2 4 4 4 5 6 4 4 3 5 5 4 2 2 3 1 3 2 1 3 6 8 11 14 14 17 14 10 10 14 11 17 20 21 19
6 2 6 8 8 10 9 9 6 3 2 4 3 7 8 7 8 6 7 7 5 4 3 6 10 11 11 10 7 5 4 6 8 10 11 11 13 12 12 12 13 13 12 14
2 3 6 6 11 6 8 2 2 9 2 1 5 4 7 10 7 6 6 6 6 1 7 7 9 10 9 9 7 7 6 4 5 6 6 5 6 6 3 2 5 8 13 14
5 7 8 5 7 7 2 9 5 1 2 5 4 1 6 3 6 7 9 5 8 7 7 7 9 7 6 8 10 7 4 2 3 5 6 6 7 8 10 10 10 11 12 13
5 1 4 2 4 4 7 10 8 5 3 2 6 3 4 3 7 4 6 7 8 7 6 8 8 9 10 10 11 9 7 4 4 3 2 3 5 7 8 7 8 9 9 9
8 4 2 4 7 3 3 7 2 2 1 4 2 6 9 1 5 7 9 8 8 6 7 7 8 11 12 12 11 10 8 4 4 2 2 4 5 6 8 9 9 9 9 9
7 3 6 4 4 8 8 6 4 5 4 3 4 4 4 1 8 9 8 7 7 8 6 7 8 11 11 10 9 8 7 5 3 3 4 5 6 7 7 9 11 12 12 12
5 4 3 7 2 9 6 5 3 4 2 3 4 4 4 5 6 8 5 7 8 8 8 7 9 9 7 6 7 7 6 6 7 7 7 7 8 10 11 11 13 14 14 15
3 5 4 3 2 5 3 6 3 2 4 2 3 3 4 5 5 8 7 6 7 8 8 6 7 7 6 5 7 7 7 7 7 8 9 10 11 12 13 15 15 16 17 17
5 5 3 5 3 6 3 4 1 4 2 3 1 3 4 4 5 9 9 8 8 8 8 6 5 5 3 3 5 7 7 8 9 10 11 12 13 14 15 16 17 17 19 19
3 4 4 3 3 4 5 6 4 3 3 1 3 4 3 5 7 9 9 7 6 6 6 4 3 3 1 4 6 9 9 9 10 11 11 12 13 13 14 17 18 18 20 21
2 3 5 4 4 2 2 4 3 5 3 5 5 3 3 6 7 7 7 5 2 2 1 2 3 6 6 5 7 9 10 11 12 13 13 14 15 17 18 18 20 21 21 22
5 3 2 3 4 2 5 7 7 4 3 3 5 1 3 4 4 3 2 3 3 3 4 4 3 6 9 11 11 10 9 10 13 13 14 15 17 18 19 20 21 22 23 24
3 4 4 8 4 5 3 5 8 10 6 3 2 6 4 3 4 6 4 5 5 5 5 2 4 7 12 13 10 9 8 12 15 15 16 16 17 17 18 20 22 24 24 25
2 2 2 3 5 4 1 4 5 4 5 6 6 13 7 11 9 7 10 9 8 4 4 6 8 12 11 10 9 8 11 14 14 14 15 16 18 20 21 23 25 25 26 25
2 3 2 2 4 2 4 7 10 6 6 7 7 11 10 8 8 7 8 7 5 5 8 8 7 10 9 9 9 12 14 15 14 16 15 18 21 23 24 25 27 27 27 27
6 3 2 2 3 1 5 2 2 8 9 9 11 12 11 10 4 6 6 4 7 8 8 7 8 7 7 7 10 13 15 15 17 15 18 21 25 27 28 29 28 27 27 27
5 3 2 4 3 5 6 4 5 6 6 5 8 10 10 5 6 6 6 8 8 8 11 9 5 4 6 9 13 15 16 16 15 17 22 25 26 27 28 27 27 27 28 28
3 5 3 2 4 6 2 3 4 5 4 4 7 6 5 4 3 2 5 6 8 10 6 3 4 6 7 11 14 17 17 16 16 21 23 24 24 25 26 25 27 28 27 25
3 2 4 3 2 6 5 2 4 6 4 2 3 4 3 3 2 5 6 4 4 3 2 3 5 7 9 13 16 15 14 13 18 20 23 23 23 23 23 24 26 26 26 26
5 5 3 1 1 7 6 2 6 2 2 4 3 3 6 6 6 4 5 5 5 2 3 5 8 8 10 12 12 12 11 16 19 22 23 24 23 23 23 24 26 24 22 20
2 5 4 8 6 3 3 3 1 3 4 4 5 4 5 5 5 5 5 6 4 1 1 5 7 8 7 9 10 11 13 17 20 22 23 23 21 21 22 22 23 23 24 20
4 3 2 2 6 9 8 8 5 3 4 4 3 5 3 3 4 4 3 1 2 0 3 5 6 7 8 9 9 10 13 17 20 22 22 21 22 24 24 21 20 20 21 19
4 5 6 5 8 9 9 8 7 5 6 5 5 5 3 2 3 2 1 2 3 3 5 4 4 6 8 9 11 12 15 17 18 19 19 19 20 21 21 20 20 21 21 21
6 7 5 5 7 5 1 3 1 6 7 7 6 3 3 4 5 4 4 5 7 7 5 4 4 6 8 10 12 12 14 14 16 18 18 19 19 20 20 21 23 19 19 20
Wind_Direction
204 186 191 219 190 232 276 353 354 61 35 39 234 233 163 150 125 174 300 44 151 176 213 225 142 141 183 214 241 250 255 251 244 234 238 242 248 252 254 247 246 242 235 236
151 211 193 92 140 149 159 173 292 331 22 356 309 256 261 277 147 208 264 255 235 241 293 239 224 48 76 66 309 292 260 255 255 252 242 242 244 246 241 250 242 250 254 251
184 162 191 168 216 163 169 198 200 292 142 207 330 274 246 240 212 203 221 228 264 290 347 17 22 23 23 36 19 322 297 267 261 262 242 238 238 250 259 258 258 263 251 249
228 155 154 174 181 182 181 197 122 173 198 189 134 292 270 230 160 181 235 239 238 122 58 55 41 35 26 360 343 322 323 301 249 241 227 253 265 269 276 223 210 243 267 270
151 155 157 157 173 176 121 101 172 244 22 1 203 179 254 260 162 191 214 114 87 74 63 53 46 23 15 5 15 20 350 325 272 256 248 232 251 258 265 268 273 279 284 293
96 346 103 141 86 119 139 109 97 76 34 268 233 214 249 229 207 130 97 95 86 73 72 70 71 64 52 42 44 43 56 39 358 350 323 276 259 275 285 288 289 297 296 289
120 93 71 145 95 103 160 142 97 76 147 220 145 213 244 275 65 113 141 123 118 105 90 91 79 72 60 52 50 52 60 53 13 354 322 308 307 303 306 313 311 305 303 301
150 156 192 175 161 165 186 184 158 171 182 207 350 240 257 39 57 98 99 102 110 119 118 100 95 84 69 54 46 46 41 41 9 349 333 318 310 312 310 307 306 302 295 288
146 88 146 148 78 138 185 214 15 98 45 69 193 267 318 229 129 114 160 150 161 142 130 110 84 81 78 61 42 32 24 14 0 347 336 331 326 322 316 314 309 306 304 303
97 118 139 56 81 69 136 134 80 345 131 204 239 254 222 202 207 166 144 170 150 145 127 127 103 80 56 45 32 22 9 358 348 340 339 329 324 321 317 314 314 312 310 307
111 114 137 136 241 153 130 158 156 135 112 167 160 230 316 60 270 165 170 171 153 147 150 148 129 62 32 37 37 26 18 4 356 351 343 333 331 329 325 319 320 317 315 313
14 103 123 121 8 355 218 161 144 128 241 238 136 266 25 37 31 102 88 65 66 89 107 134 13 289 207 87 36 30 20 12 360 355 349 343 339 340 337 334 331 325 319 318
152 119 107 91 3 22 216 207 197 126 85 201 148 256 6 62 62 51 71 66 77 138 299 280 313 36 109 82 41 31 19 15 11 6 3 359 356 355 352 345 338 332 327 323
40 69 66 115 101 139 170 193 206 196 146 174 211 76 93 108 125 128 142 209 270 334 359 330 350 74 71 87 67 42 29 10 2 1 359 354 351 348 344 338 335 332 329 324
77 90 92 101 70 33 61 175 207 217 229 201 77 230 266 324 295 276 244 223 203 201 225 152 95 72 75 65 47 31 13 357 353 354 351 347 340 338 336 334 333 330 327 325
357 123 94 60 120 103 136 269 266 272 259 279 275 268 267 270 271 266 264 271 279 302 53 90 75 69 64 55 33 15 1 353 349 346 344 337 336 337 337 334 333 330 327 326
106 125 98 122 353 73 338 219 209 210 207 203 229 241 253 263 254 240 251 246 194 118 91 80 75 69 52 28 9 360 349 346 345 344 339 336 336 336 335 333 332 331 328 326
116 90 61 168 23 54 236 299 241 228 237 237 247 258 264 263 281 70 47 73 82 89 86 73 60 44 24 354 346 341 343 344 341 343 336 336 336 334 334 333 333 330 327 323
41 84 60 124 197 289 323 229 171 173 263 249 258 260 265 293 133 55 50 61 79 84 84 89 65 20 349 340 339 338 342 342 345 338 337 337 338 336 335 334 333 332 328 325
50 23 101 55 138 208 256 348 346 96 291 7 17 29 21 113 172 148 84 86 85 90 93 69 10 353 345 342 337 340 342 346 344 340 339 339 339 336 334 335 334 332 333 323
81 39 151 183 210 286 263 248 346 104 235 35 48 47 32 105 164 142 118 88 106 109 64 345 350 4 357 335 339 344 348 347 337 335 337 340 342 340 338 337 338 339 337 333
156 139 180 95 90 286 186 35 180 162 69 122 90 82 93 118 135 144 150 165 178 179 343 347 353 349 345 336 344 343 344 332 336 339 341 343 344 344 343 340 340 342 341 336
225 181 182 184 209 223 215 225 159 156 167 190 171 178 159 166 185 190 206 198 203 211 328 332 340 333 353 337 339 335 330 333 338 340 343 343 342 344 341 340 339 336 338 337
240 251 220 91 255 240 245 263 257 192 213 189 146 162 176 212 209 241 249 116 100 252 309 303 318 335 332 316 325 326 332 337 339 340 341 342 342 336 339 338 335 331 332 331
204 138 196 259 278 300 274 231 224 211 176 170 169 182 214 205 274 229 162 199 232 234 255 272 288 282 294 309 324 334 337 335 334 334 338 337 332 334 333 331 331 329 328 327
181 193 184 224 213 187 194 130 90 183 204 197 184 202 211 200 220 199 221 221 214 207 217 255 276 291 297 309 323 330 326 325 327 327 332 332 331 335 329 330 328 333 328 327